Zurich Airport, Switzerland

7:41 PM CEST on April 29, 2017 (GMT +0200)
Zurich Airport

Weather History for LSZH - October, 2013

Change the Weather History Date:

Monday, October 7, 2013

  Actual Average Record
Temperature  
Mean Temperature 54 °F -  
Max Temperature 57 °F 59 °F 75 °F (1997)
Min Temperature 51 °F 44 °F 35 °F (1999)
Degree Days  
Heating Degree Days 11    
Growing Degree Days 4 (Base 50)    
Moisture  
Dew Point 50 °F    
Average Humidity 83    
Maximum Humidity 94    
Minimum Humidity 69    
Precipitation  
Precipitation 0.00 in - - ()
Sea Level Pressure  
Sea Level Pressure 30.25 in    
Wind  
Wind Speed 4 mph ()    
Max Wind Speed 7 mph    
Max Gust Speed -    
Visibility 5.7 miles    
Events      
Averages and records for this station are not official NWS values.
T = Trace of Precipitation, MM = Missing Value Source: Averaged Metar Reports

Daily Weather History Graph

Daily Weather History Graph

Search for Another Location

Airport or City:

Trip Planner

Search our weather history database for the weather conditions in past years. The results will help you decide how hot, cold, wet, or windy it might be!

Date:

Astronomy

Oct. 07, 2013 Rise Set
Actual Time 7:33 AM CEST 6:53 PM CEST
Civil Twilight 7:02 AM CEST 7:24 PM CEST
Nautical Twilight 6:26 AM CEST 7:59 PM CEST
Astronomical Twilight 5:50 AM CEST 8:35 PM CEST
Moon 10:17 AM CEST (10/7) 8:12 PM CEST (10/7)
Length of Visible Light 12h 21m
Length of Day
11h 20m
Waxing Crescent, 7% of the Moon is Illuminated
Oct 7
Waxing Crescent
Oct 12
First Quarter
Oct 19
Full
Oct 27
Last Quarter
Nov 3
New

Hourly Weather History & Observations

Time (CEST) Temp. Dew Point Humidity Pressure Visibility Wind Dir Wind Speed Gust Speed Precip Events Conditions
12:00 AM 52 °F 47 °F 79% 30.29 in - NNE 2.3 mph - -  
12:20 AM 51.8 °F 48.2 °F 88% 30.27 in 6.2 mi NNE 3.5 mph - N/A   Mostly Cloudy
12:50 AM 51.8 °F 46.4 °F 82% 30.27 in 6.2 mi Variable 2.3 mph - N/A   Mostly Cloudy
1:00 AM 52 °F 47 °F 76% 30.29 in - NNE 5.8 mph - -  
1:20 AM 51.8 °F 46.4 °F 82% 30.27 in 6.2 mi NNE 4.6 mph - N/A   Mostly Cloudy
1:50 AM 53.6 °F 46.4 °F 77% 30.27 in 6.2 mi North 2.3 mph - N/A   Mostly Cloudy
2:00 AM 53 °F 47 °F 73% 30.28 in 16 mi NNE 3.5 mph - -   Mostly Cloudy
2:50 AM 51.8 °F 48.2 °F 88% 30.27 in 6.2 mi Variable 2.3 mph - N/A   Mostly Cloudy
3:00 AM 53 °F 48 °F 78% 30.28 in - NNE 2.3 mph - -  
3:20 AM 51.8 °F 48.2 °F 88% 30.27 in 6.2 mi Variable 2.3 mph - N/A   Mostly Cloudy
3:50 AM 51.8 °F 48.2 °F 88% 30.24 in 6.2 mi North 4.6 mph - N/A   Mostly Cloudy
4:00 AM 53 °F 48 °F 76% 30.26 in - NE 5.8 mph - -  
4:20 AM 51.8 °F 48.2 °F 88% 30.24 in 6.2 mi Variable 2.3 mph - N/A   Mostly Cloudy
4:50 AM 51.8 °F 48.2 °F 88% 30.24 in 6.2 mi NNW 5.8 mph - N/A   Mostly Cloudy
5:20 AM 51.8 °F 48.2 °F 88% 30.24 in 6.2 mi NNW 4.6 mph - N/A   Mostly Cloudy
5:50 AM 51.8 °F 48.2 °F 88% 30.24 in 6.2 mi NNW 4.6 mph - N/A   Mostly Cloudy
6:00 AM 52 °F 48 °F 83% 30.26 in - NNW 5.8 mph - -  
6:20 AM 51.8 °F 48.2 °F 88% 30.24 in 6.2 mi WNW 3.5 mph - N/A   Mostly Cloudy
6:50 AM 51.8 °F 48.2 °F 88% 30.24 in 6.2 mi Variable 2.3 mph - N/A   Mostly Cloudy
7:00 AM 52 °F 49 °F 84% 30.26 in - NNW 4.6 mph - -  
7:20 AM 51.8 °F 50.0 °F 94% 30.24 in 6.2 mi NW 3.5 mph - N/A   Mostly Cloudy
7:50 AM 51.8 °F 48.2 °F 88% 30.24 in 6.2 mi NNW 3.5 mph - N/A   Mostly Cloudy
8:00 AM 53 °F 48 °F 79% 30.27 in 9 mi North 3.5 mph - -   Overcast
8:20 AM 53.6 °F 48.2 °F 82% 30.24 in 6.2 mi NNW 4.6 mph - N/A   Mostly Cloudy
8:50 AM 53.6 °F 50.0 °F 88% 30.24 in 6.2 mi NNE 4.6 mph - N/A   Mostly Cloudy
9:00 AM 53 °F 50 °F 84% 30.26 in - North 3.5 mph - -  
9:20 AM 53.6 °F 50.0 °F 88% 30.24 in 5.0 mi Variable 2.3 mph - N/A   Mostly Cloudy
9:50 AM 53.6 °F 50.0 °F 88% 30.27 in 3.1 mi NNE 4.6 mph - N/A   Light Drizzle
10:00 AM 54 °F 51 °F 88% 30.26 in - NNE 6.9 mph - -  
10:20 AM 53.6 °F 51.8 °F 94% 30.27 in 3.1 mi North 5.8 mph - N/A   Light Drizzle
10:50 AM 53.6 °F 51.8 °F 94% 30.27 in 3.1 mi North 6.9 mph - N/A   Mostly Cloudy
11:20 AM 53.6 °F 51.8 °F 94% 30.27 in 3.7 mi North 4.6 mph - N/A   Mostly Cloudy
11:50 AM 55.4 °F 51.8 °F 88% 30.27 in 3.7 mi North 3.5 mph - N/A   Mostly Cloudy
12:00 PM 55 °F 51 °F 83% 30.26 in - NE 3.5 mph - -  
12:20 PM 55.4 °F 51.8 °F 88% 30.24 in 4.3 mi North 3.5 mph - N/A   Mostly Cloudy
12:50 PM 55.4 °F 51.8 °F 88% 30.24 in 5.6 mi NE 5.8 mph - N/A   Mostly Cloudy
1:00 PM 56 °F 51 °F 78% 30.25 in - NE 5.8 mph - -  
1:20 PM 55.4 °F 51.8 °F 88% 30.24 in 6.2 mi NNE 3.5 mph - N/A   Mostly Cloudy
1:50 PM 55.4 °F 51.8 °F 88% 30.24 in 6.2 mi NNE 5.8 mph - N/A   Mostly Cloudy
2:00 PM 56 °F 51 °F 77% 30.23 in 6 mi NNE 6.9 mph - -   Mist
2:20 PM 57.2 °F 50.0 °F 77% 30.24 in 6.2 mi NNE 5.8 mph - N/A   Mostly Cloudy
2:50 PM 57.2 °F 51.8 °F 82% 30.24 in 6.2 mi NNE 5.8 mph - N/A   Mostly Cloudy
3:00 PM 57 °F 51 °F 74% 30.23 in - ENE 5.8 mph - -  
3:20 PM 57.2 °F 51.8 °F 82% 30.24 in 6.2 mi NE 4.6 mph - N/A   Mostly Cloudy
3:50 PM 59.0 °F 51.8 °F 77% 30.24 in 6.2 mi ENE 5.8 mph - N/A   Mostly Cloudy
4:00 PM 58 °F 51 °F 69% 30.22 in - East 6.9 mph - -  
4:20 PM 57.2 °F 51.8 °F 82% 30.24 in 6.2 mi ENE 4.6 mph - N/A   Mostly Cloudy
4:50 PM 57.2 °F 50.0 °F 77% 30.24 in 6.2 mi East 5.8 mph - N/A   Mostly Cloudy
5:20 PM 57.2 °F 51.8 °F 82% 30.24 in 6.2 mi East 5.8 mph - N/A   Mostly Cloudy
5:50 PM 57.2 °F 51.8 °F 82% 30.24 in 5.6 mi East 3.5 mph - N/A   Mostly Cloudy
6:00 PM 56 °F 51 °F 77% 30.23 in - East 3.5 mph - -  
6:20 PM 57.2 °F 50.0 °F 77% 30.24 in 5.6 mi ENE 5.8 mph - N/A   Mostly Cloudy
6:50 PM 55.4 °F 50.0 °F 82% 30.24 in 5.0 mi NNE 5.8 mph - N/A   Mostly Cloudy
7:00 PM 56 °F 50 °F 75% 30.24 in - ENE 5.8 mph - -  
7:20 PM 55.4 °F 50.0 °F 82% 30.24 in 3.7 mi East 4.6 mph - N/A   Mostly Cloudy
7:50 PM 55.4 °F 50.0 °F 82% 30.24 in 4.3 mi Variable 3.5 mph - N/A   Mostly Cloudy
8:00 PM 55 °F 50 °F 78% 30.25 in 4 mi NE 4.6 mph - -   Mist
8:20 PM 55.4 °F 50.0 °F 82% 30.24 in 4.3 mi NNW 4.6 mph - N/A   Mostly Cloudy
8:50 PM 55.4 °F 50.0 °F 82% 30.24 in 5.0 mi North 4.6 mph - N/A   Mostly Cloudy
9:00 PM 55 °F 50 °F 78% 30.25 in - NNE 5.8 mph - -  
9:20 PM 55.4 °F 50.0 °F 82% 30.27 in 5.0 mi Variable 2.3 mph - N/A   Mostly Cloudy
9:50 PM 55.4 °F 50.0 °F 82% 30.24 in 5.0 mi NE 3.5 mph - N/A   Mostly Cloudy
10:00 PM 55 °F 51 °F 80% 30.25 in - NE 2.3 mph - -  
10:20 PM 53.6 °F 50.0 °F 88% 30.24 in 5.0 mi Variable 2.3 mph - N/A   Mostly Cloudy
10:50 PM 53.6 °F 50.0 °F 88% 30.24 in 5.0 mi Variable 4.6 mph - N/A   Mostly Cloudy
11:20 PM 53.6 °F 50.0 °F 88% 30.24 in 5.0 mi North 4.6 mph - N/A   Overcast
11:50 PM 53.6 °F 50.0 °F 88% 30.24 in 4.3 mi NW 3.5 mph - N/A   Mostly Cloudy